EHI
0 0 0 0 0 0 0 0 0 0 0 0 0 0 0 0 0 0 0 0 0 0 0 0 0 0 0 0 0 0 1 2 3 3 2 1 0 0 0 0 0 0 0 0
0 0 0 0 0 0 0 0 0 0 0 0 0 0 0 0 0 0 0 0 0 0 0 0 0 0 0 0 0 0 0 1 2 3 2 1 0 0 0 0 0 0 0 0
0 0 0 0 0 0 0 0 0 0 0 0 0 0 0 0 0 0 0 0 0 0 0 0 0 0 0 0 0 0 0 0 1 2 2 1 0 0 0 0 0 0 0 0
0 0 0 0 0 0 0 0 0 0 0 0 0 0 0 0 0 0 0 0 0 0 0 0 0 0 0 0 0 0 0 0 0 1 1 0 0 0 0 0 0 0 0 0
0 0 0 0 0 0 0 0 0 0 0 0 0 0 0 0 0 0 0 0 0 0 0 0 0 0 0 0 0 0 0 0 0 0 0 0 0 0 0 0 0 0 0 0
0 0 0 0 0 0 0 0 0 0 0 0 0 0 0 0 0 0 0 0 0 0 0 0 0 0 0 0 0 0 0 0 0 0 0 0 0 0 0 0 0 0 0 0
0 0 0 0 0 0 0 0 0 0 0 0 0 0 0 0 0 0 0 0 0 0 0 0 0 0 0 0 0 0 0 0 0 0 0 0 0 0 0 0 0 0 0 0
0 0 0 0 0 0 0 0 0 0 0 0 0 0 0 0 0 0 0 0 0 0 0 0 0 0 0 0 0 0 0 0 0 0 0 0 0 0 0 0 0 0 0 0
0 0 0 0 0 0 0 0 0 0 0 0 0 0 0 0 0 0 0 0 0 0 0 0 0 0 0 0 0 0 0 0 0 0 0 0 0 0 0 0 0 0 0 0
0 0 0 0 0 0 0 0 0 0 0 0 0 0 0 0 0 0 0 0 0 0 0 0 0 0 0 0 0 0 0 0 0 0 0 0 0 0 0 0 0 0 0 0
0 0 0 0 0 0 0 0 0 0 0 0 0 0 0 0 0 0 0 0 0 0 0 0 0 0 0 0 0 0 0 0 0 0 0 0 0 0 0 0 0 0 0 0
0 0 0 0 0 0 0 0 0 0 0 0 0 0 0 0 0 0 0 0 0 0 0 0 0 0 0 0 0 0 0 0 0 0 0 0 0 0 0 0 0 0 0 0
0 0 0 0 0 0 0 0 0 0 0 0 0 0 0 0 0 0 0 0 0 0 0 0 0 0 0 0 0 0 0 0 0 0 0 0 0 0 0 0 0 0 0 0
0 0 0 0 0 0 0 0 0 0 0 0 0 0 0 0 0 0 0 0 0 0 0 0 0 0 0 0 0 0 0 0 0 0 0 0 0 0 0 0 0 0 0 0
0 0 0 0 0 0 0 0 0 0 0 0 0 0 0 0 0 0 0 0 0 0 0 0 0 0 0 0 0 0 0 0 0 0 0 0 0 0 0 0 0 0 0 0
0 0 0 0 0 0 0 0 0 0 0 0 0 0 0 0 0 0 0 0 0 0 0 0 0 0 0 0 0 0 0 0 0 0 0 0 0 0 0 0 0 0 0 0
0 0 0 0 0 0 0 0 0 0 0 0 0 0 0 0 0 0 0 0 0 0 0 0 0 0 0 0 0 0 0 0 0 0 0 0 0 0 0 0 0 0 0 0
0 0 0 0 0 0 0 0 0 0 0 0 0 0 0 0 0 0 0 0 0 0 0 0 0 0 0 0 0 0 0 0 0 0 0 0 0 0 0 0 0 0 0 0
0 0 0 0 0 0 0 0 0 0 0 0 0 0 0 0 0 0 0 0 0 0 0 0 0 0 0 0 0 0 0 0 0 0 0 0 0 0 0 0 0 0 0 0
0 0 0 0 0 0 0 0 0 0 0 0 0 0 0 0 0 0 0 0 0 0 0 0 0 0 0 0 0 0 0 0 0 0 0 0 0 0 0 0 0 0 0 0
0 0 0 0 0 0 0 0 0 0 0 0 0 0 0 0 0 0 0 0 0 0 0 0 0 0 0 0 0 0 0 0 0 0 0 0 0 0 0 0 0 0 0 0
0 0 0 0 0 0 0 0 0 0 0 0 0 0 0 0 0 0 0 0 0 0 0 0 0 0 0 0 0 0 0 0 0 0 0 0 0 0 0 0 0 0 0 0
0 0 0 0 0 0 0 0 0 0 0 0 0 0 0 0 0 0 0 0 0 0 0 0 0 0 0 0 0 0 0 0 0 0 0 0 0 0 0 0 0 0 0 0
0 0 0 0 0 0 0 0 0 0 0 0 0 0 0 0 0 0 0 0 0 0 0 0 0 0 0 0 0 0 0 0 0 0 0 0 0 0 0 0 0 0 0 0
0 0 0 0 0 0 0 0 0 0 0 0 0 0 0 0 0 0 0 0 0 0 0 0 0 0 0 0 0 0 0 0 0 0 0 0 0 0 0 0 0 0 0 0
0 0 0 0 0 0 0 0 0 0 0 0 0 0 0 0 0 0 0 0 0 0 0 0 0 0 0 0 0 0 0 0 0 0 0 0 0 0 0 0 0 0 0 0
Wind_Speed
1 2 3 5 6 4 3 4 8 8 5 5 9 14 14 9 7 8 8 8 8 10 8 6 6 5 5 5 5 6 7 7 6 5 5 5 4 4 3 4 5 6 6 6
2 3 6 3 3 3 4 6 8 8 5 5 9 14 12 8 8 8 9 9 9 9 7 6 5 4 5 6 6 6 7 7 7 6 5 4 3 3 3 3 4 5 6 6
5 4 2 3 3 4 6 7 7 7 7 4 7 11 8 5 6 7 8 8 8 9 9 7 6 6 6 6 6 6 7 7 7 6 4 3 2 2 2 4 4 5 6 6
4 3 2 3 5 5 6 5 6 6 5 5 1 8 9 5 6 7 8 7 8 8 8 7 6 6 6 7 5 5 5 6 6 7 6 7 6 5 5 4 4 4 5 6
4 2 3 4 5 5 5 2 4 5 4 5 3 6 10 3 6 8 8 8 8 7 7 7 6 7 6 5 5 5 5 5 5 6 8 7 6 4 3 3 4 4 4 5
4 2 3 4 2 3 2 1 2 1 0 5 5 5 10 5 7 6 6 6 6 6 6 6 6 5 4 4 4 4 4 5 5 6 6 7 7 5 4 4 5 4 3 4
3 2 1 1 1 1 2 2 3 4 2 7 2 5 11 7 6 6 7 7 6 5 5 4 4 4 4 4 4 4 5 5 5 6 6 7 7 7 7 6 6 5 3 3
1 4 2 2 3 3 3 4 4 4 5 5 3 8 9 5 4 3 4 5 5 4 4 4 4 3 4 4 4 4 5 5 5 6 6 5 5 4 4 5 4 5 4 4
2 5 1 1 2 4 3 3 3 2 2 4 7 8 10 4 5 4 4 4 5 5 5 5 4 3 3 3 3 4 4 4 5 5 5 5 5 5 4 4 4 3 3 3
3 4 3 2 1 0 2 2 2 2 2 5 6 6 5 6 6 6 5 5 5 5 5 5 4 3 2 2 1 1 2 3 4 4 4 4 5 5 4 4 4 4 3 3
1 2 3 1 3 4 2 2 2 2 3 3 5 7 3 5 4 4 5 5 5 5 5 5 4 4 2 1 1 0 1 1 2 3 3 3 4 4 4 4 4 4 4 4
1 2 3 5 3 1 3 4 4 3 4 3 3 8 3 3 2 3 4 5 5 6 6 5 5 5 3 2 1 0 1 1 2 2 3 3 3 4 4 4 4 4 4 3
2 2 2 5 2 1 1 2 3 2 2 3 4 8 3 4 5 5 5 6 6 7 7 6 6 5 4 4 3 2 1 1 1 2 3 3 3 4 4 4 4 4 4 3
1 2 5 7 6 3 4 4 3 3 4 5 8 9 8 8 7 7 6 6 6 6 6 6 6 5 5 4 4 3 2 1 1 1 2 3 3 4 4 3 3 4 4 3
2 2 4 6 7 5 6 7 6 8 8 8 8 8 10 7 6 6 6 6 6 7 7 7 7 6 5 4 4 3 3 2 1 0 1 2 2 2 3 3 3 3 3 3
1 2 1 4 4 4 6 7 7 8 7 8 8 11 7 5 3 4 5 6 7 7 7 7 7 7 7 5 4 4 3 3 1 1 1 1 1 2 2 2 3 2 2 2
1 1 1 4 5 4 7 6 6 5 4 5 8 7 3 4 5 4 6 7 6 7 7 7 7 7 7 6 4 3 3 3 2 1 2 1 1 1 2 2 2 2 3 3
3 2 1 2 4 5 6 1 3 4 4 4 4 4 4 4 5 5 5 5 5 6 6 7 7 7 7 6 4 3 3 3 2 2 2 2 1 1 1 2 2 3 3 3
3 4 2 1 2 8 6 2 1 2 5 3 3 4 4 3 4 4 3 2 4 6 7 7 6 6 6 5 4 4 3 3 3 2 2 2 1 1 1 2 2 2 3 3
2 2 2 2 2 6 5 3 2 1 4 2 1 3 4 3 3 5 4 6 7 7 6 6 6 5 5 5 4 3 3 3 3 3 3 2 1 1 2 2 2 2 2 2
1 1 2 3 4 8 4 3 1 1 5 3 2 3 3 3 5 6 7 7 6 6 6 6 5 4 4 4 3 3 3 4 4 4 2 2 1 2 2 2 1 2 2 2
5 4 4 3 4 8 1 2 2 4 4 3 4 3 4 5 6 7 6 6 6 6 6 6 5 4 4 3 2 3 4 4 4 3 2 1 1 1 1 1 1 2 2 2
5 6 4 7 7 4 1 3 3 3 4 4 4 4 4 5 6 7 6 6 6 6 6 5 4 5 4 3 2 3 5 4 3 3 2 1 1 1 0 1 1 1 2 2
3 1 2 4 7 5 5 5 4 3 4 5 4 4 4 5 6 7 6 5 5 6 5 5 4 5 5 4 3 3 4 3 2 2 2 1 0 0 0 1 1 2 2 2
4 3 2 5 7 6 4 4 4 4 4 4 5 4 4 4 5 5 5 6 5 5 5 4 4 5 5 4 4 4 3 2 2 2 1 1 1 1 1 1 1 2 3 3
4 6 6 6 5 4 6 5 3 3 4 5 5 5 5 4 5 5 5 5 5 5 4 4 5 5 5 4 4 4 3 2 1 1 1 1 1 0 0 1 1 2 2 2
Wind_Direction
37 86 215 224 212 213 204 239 262 269 285 282 266 275 279 274 262 261 262 262 260 261 264 263 253 244 237 221 215 212 205 195 178 176 179 181 191 194 198 203 191 191 189 186
36 243 233 207 209 215 234 256 268 283 282 278 279 277 275 262 251 248 251 257 259 264 273 266 258 244 236 224 216 216 211 200 189 187 182 181 178 189 198 198 192 193 190 188
211 237 202 198 218 222 239 237 252 273 308 297 295 287 269 262 247 256 255 253 254 250 255 259 254 246 235 229 221 218 217 208 194 181 163 149 140 145 180 194 198 196 193 192
244 248 217 225 230 208 254 232 245 270 295 292 301 289 282 270 271 264 264 263 260 260 255 254 249 249 235 232 228 221 219 210 193 180 177 177 186 197 202 195 195 192 194 193
256 214 212 228 232 199 231 249 250 263 260 283 255 253 280 274 273 275 271 266 267 267 258 255 249 246 238 229 223 217 213 208 192 184 185 187 197 201 194 184 183 191 196 196
254 235 209 219 234 198 209 359 315 299 201 268 240 221 276 245 244 268 278 281 281 278 270 259 255 249 242 236 225 213 204 204 190 185 187 192 195 190 186 190 189 193 197 196
299 259 220 160 87 65 110 90 359 344 315 255 236 229 255 251 247 247 272 288 290 290 285 276 270 252 242 239 231 220 202 201 193 187 192 196 197 194 196 195 191 188 195 202
278 284 231 185 184 184 191 169 186 228 244 283 284 245 260 274 286 279 282 291 299 302 300 293 277 263 251 245 232 224 207 200 193 192 195 192 194 197 200 197 192 194 200 202
213 265 312 218 194 154 168 201 199 182 259 278 268 279 295 303 327 333 328 325 317 313 310 298 291 283 271 259 242 223 206 200 197 197 192 190 193 195 196 188 186 190 192 188
180 267 287 303 69 39 179 164 129 160 226 267 283 274 275 307 315 327 328 321 320 327 324 319 317 316 309 282 272 246 199 193 192 185 185 189 192 191 186 178 182 186 187 180
170 216 300 331 205 205 172 176 181 188 195 209 275 275 264 284 296 313 316 323 332 333 325 322 328 330 319 323 339 83 197 178 181 179 177 181 189 186 182 184 191 188 187 182
170 152 262 257 247 210 198 200 181 200 238 213 237 272 306 300 325 345 330 330 343 342 340 338 340 345 345 338 346 5 242 204 197 187 177 182 186 183 188 192 195 187 189 187
156 148 325 331 337 3 232 220 205 193 196 215 232 268 335 353 352 349 341 337 343 343 347 348 352 354 353 352 356 359 332 261 211 185 183 186 187 190 198 198 194 189 187 187
132 175 202 226 246 241 251 245 215 195 220 240 239 266 301 319 328 334 339 336 337 339 343 348 350 351 351 352 352 350 347 338 305 202 193 197 198 200 204 199 192 188 186 192
108 223 241 259 272 261 248 253 231 220 225 232 256 262 281 294 307 316 326 333 337 341 343 345 342 343 347 346 345 343 344 346 337 315 240 229 218 202 191 184 186 184 187 200
90 214 281 287 276 264 266 261 244 242 240 244 267 277 279 293 313 324 326 331 332 331 332 333 336 338 337 333 329 334 338 339 344 335 294 272 225 202 191 184 180 171 181 179
165 156 289 280 310 326 279 246 212 214 222 216 241 259 297 314 315 313 317 321 321 321 325 328 330 325 321 320 315 319 324 337 348 320 297 288 263 214 202 189 177 178 180 176
165 154 179 293 358 261 252 236 204 216 255 234 252 284 293 283 293 298 299 304 317 324 323 322 321 319 317 315 321 322 327 339 339 324 308 297 267 235 216 193 192 191 186 183
182 158 156 176 275 281 296 302 215 217 282 248 239 284 305 312 321 313 312 320 311 311 309 308 307 306 313 320 325 332 321 327 329 313 296 283 261 239 222 210 200 193 187 193
82 119 140 161 227 256 276 325 319 84 291 292 247 281 308 342 326 296 321 323 316 313 314 315 316 319 322 322 329 340 332 328 316 301 292 283 257 227 228 221 209 198 193 200
121 135 180 200 239 265 275 304 18 124 275 309 288 284 289 280 263 283 304 311 314 315 318 323 326 326 318 321 331 332 332 315 301 295 288 288 271 238 225 211 196 183 184 174
188 184 199 178 221 260 294 99 183 248 299 300 291 284 278 280 291 298 306 315 323 327 331 334 337 333 331 333 336 331 317 305 305 304 299 298 292 265 226 166 177 170 169 171
207 200 196 201 225 266 238 235 263 287 291 289 285 290 286 290 296 304 310 315 319 323 328 328 329 328 331 336 338 321 312 319 326 331 324 312 309 285 206 167 173 171 175 182
256 209 210 266 271 273 275 278 291 292 282 288 289 290 286 285 294 302 307 314 319 322 325 327 331 329 325 329 333 317 314 319 326 327 322 320 326 300 240 193 194 189 193 196
238 179 218 263 280 303 287 266 277 291 299 305 310 303 293 294 297 297 305 311 314 318 322 327 325 319 317 321 324 322 322 325 325 326 327 327 309 265 269 255 228 221 219 216
204 188 191 235 251 249 279 295 288 293 297 300 310 312 311 298 292 299 300 303 310 314 320 324 325 322 319 323 323 325 327 326 319 328 327 308 295 276 247 253 303 294 253 244